Change the Weather History Date:

Tuesday, August 27, 2013

  Actual Average Record
Temperature  
Mean Temperature 65 °F 59 °F  
Max Temperature 82 °F 75 °F 84 °F (2001)
Min Temperature 47 °F 44 °F 31 °F (1992)
Degree Days  
Heating Degree Days 0 6  
Month to date heating degree days 102 99  
Since 1 June heating degree days 280 399  
Since 1 July heating degree days 134 170  
Cooling Degree Days 0 0  
Month to date cooling degree days 4 9  
Year to date cooling degree days 60 38  
Since 1 June cooling degree days 60 38  
Growing Degree Days 13 (Base 50)    
Moisture  
Dew Point 48 °F    
Average Humidity 61    
Maximum Humidity 93    
Minimum Humidity 28    
Precipitation  
Precipitation T in 0.06 in 0.24 in (2014)
Month to date precipitation 1.24 1.46  
Year to date precipitation 9.59 11.24  
Sea Level Pressure  
Sea Level Pressure 30.04 in    
Wind  
Wind Speed 6 mph (WSW)    
Max Wind Speed 16 mph    
Max Gust Speed 22 mph    
Visibility 10 miles    
Events Rain , Thunderstorm    
T = Trace of Precipitation, MM = Missing Value Source: NWS Daily Summary

Daily Weather History Graph

Daily Weather History Graph

Search for Another Location

Airport or City:

Trip Planner

Search our weather history database for the weather conditions in past years. The results will help you decide how hot, cold, wet, or windy it might be!

Date:

Astronomy

Aug. 27, 2013 Rise Set
Actual Time 6:31 AM MDT 7:45 PM MDT
Civil Twilight 6:04 AM MDT 8:12 PM MDT
Nautical Twilight 5:30 AM MDT 8:46 PM MDT
Astronomical Twilight 4:56 AM MDT 9:20 PM MDT
Moon 11:43 PM MDT (8/27) 1:29 PM MDT (8/27)
Length of Visible Light 14h 08m
Length of Day
13h 13m
Waning Gibbous, 56% of the Moon is Illuminated
Aug 27
Waning Gibbous
Aug 28
Last Quarter
Sep 5
New
Sep 12
First Quarter
Sep 19
Full

Hourly Weather History & Observations

Time (MDT) Temp. Dew Point Humidity Pressure Visibility Wind Dir Wind Speed Gust Speed Precip Events Conditions
12:53 AM 53.1 °F 50.0 °F 89% 30.07 in 10.0 mi SSW 6.9 mph - N/A   Clear
1:53 AM 53.1 °F 50.0 °F 89% 30.06 in 10.0 mi SSW 3.5 mph - N/A   Clear
2:53 AM 53.1 °F 48.9 °F 86% 30.04 in 10.0 mi South 5.8 mph - N/A   Clear
3:53 AM 51.1 °F 48.0 °F 89% 30.04 in 10.0 mi Calm Calm - N/A   Partly Cloudy
4:53 AM 50.0 °F 46.9 °F 89% 30.06 in 10.0 mi South 5.8 mph - N/A   Clear
5:53 AM 50.0 °F 46.9 °F 89% 30.06 in 10.0 mi Calm Calm - N/A   Clear
6:53 AM 46.9 °F 45.0 °F 93% 30.10 in 10.0 mi South 5.8 mph - N/A   Clear
7:53 AM 53.1 °F 46.9 °F 80% 30.09 in 10.0 mi South 4.6 mph - N/A   Clear
8:53 AM 60.1 °F 48.0 °F 64% 30.06 in 10.0 mi Calm Calm - N/A   Clear
9:53 AM 66.0 °F 48.9 °F 54% 30.04 in 10.0 mi North 6.9 mph - N/A   Clear
10:53 AM 72.0 °F 48.9 °F 44% 30.01 in 10.0 mi Variable 5.8 mph - N/A   Clear
11:53 AM 75.9 °F 45.0 °F 33% 29.98 in 10.0 mi NNE 8.1 mph - N/A   Partly Cloudy
12:53 PM 75.9 °F 45.0 °F 33% 29.96 in 10.0 mi Variable 3.5 mph - N/A   Scattered Clouds
1:53 PM 80.1 °F 44.1 °F 28% 29.92 in 10.0 mi NNW 5.8 mph - N/A   Clear
2:53 PM 78.1 °F 45.0 °F 31% 29.91 in 10.0 mi NW 11.5 mph 20.7 mph N/A   Clear
3:53 PM 79.0 °F 45.0 °F 30% 29.89 in 10.0 mi NNW 8.1 mph 16.1 mph N/A   Scattered Clouds
4:53 PM 79.0 °F 46.9 °F 32% 29.89 in 10.0 mi NW 12.7 mph 21.9 mph N/A   Scattered Clouds
5:44 PM 75.2 °F 46.4 °F 36% 30.28 in 10.0 mi Calm Calm - N/A Thunderstorm Thunderstorm
5:53 PM 75.9 °F 46.9 °F 36% 29.92 in 10.0 mi Variable 6.9 mph - N/A   Scattered Clouds
6:29 PM 73.4 °F 46.4 °F 38% 30.29 in 10.0 mi NNW 8.1 mph - N/A Thunderstorm Thunderstorm
6:53 PM 72.0 °F 48.0 °F 43% 29.96 in 10.0 mi WSW 4.6 mph - 0.00 in Rain , Thunderstorm Light Thunderstorms and Rain
7:53 PM 64.0 °F 50.0 °F 60% 30.00 in 10.0 mi North 6.9 mph - 0.00 in Thunderstorm Scattered Clouds
8:15 PM 62.6 °F 51.8 °F 68% 30.34 in 10.0 mi Calm Calm - N/A   Clear
8:53 PM 60.1 °F 51.1 °F 72% 30.02 in 10.0 mi SSW 5.8 mph - N/A   Clear
9:53 PM 59.0 °F 52.0 °F 78% 29.99 in 10.0 mi SW 4.6 mph - N/A   Clear
10:53 PM 57.0 °F 51.1 °F 81% 30.00 in 10.0 mi SSW 6.9 mph - N/A   Clear
11:53 PM 55.9 °F 50.0 °F 80% 30.00 in 10.0 mi SW 6.9 mph - N/A   Mostly Cloudy